This is the latest recevied weather packets stored in our database for station/object GUNLAK-WX. If no packets are shown the sender has not sent any weather packets the latest 10 day(s).
| Time | Temp. | Humidity | Pressure | Rain* | Wind** | Luminosity | Snow |
|---|---|---|---|---|---|---|---|
| 1777749376 | 8.89° C | 38% | 991.9 hPa | 0 mm | - | - | - |
| 1777748503 | 8.33° C | 38% | 991.9 hPa | 0 mm | - | - | - |
| 1777746694 | 7.78° C | 45% | 991.8 hPa | 0 mm | - | - | - |
| 1777745774 | 8.33° C | 45% | 991.8 hPa | 0 mm | - | - | - |
| 1777744909 | 7.78° C | 45% | 991.8 hPa | 0 mm | - | - | - |
| 1777743974 | 7.78° C | 47% | 992.4 hPa | 0 mm | - | - | - |
| 1777743092 | 7.78° C | 44% | 992.2 hPa | 0 mm | - | - | - |
| 1777742175 | 7.78° C | 44% | 992.3 hPa | 0 mm | - | - | - |
| 1777741299 | 7.78° C | 44% | 992.3 hPa | 0 mm | - | - | - |
| 1777740375 | 7.78° C | 46% | 991.9 hPa | 0 mm | - | - | - |
| 1777739495 | 7.22° C | 45% | 991.5 hPa | 0 mm | - | - | - |
| 1777738575 | 7.22° C | 45% | 991.5 hPa | 0 mm | - | - | - |
| 1777737705 | 6.67° C | 45% | 991.5 hPa | 0 mm | - | - | - |
| 1777736775 | 6.67° C | 48% | 991.3 hPa | 0 mm | - | - | - |
| 1777735892 | 6.11° C | 51% | 991.6 hPa | 0 mm | - | - | - |
| 1777734975 | 6.11° C | 51% | 991.6 hPa | 0 mm | - | - | - |
| 1777734108 | 5.56° C | 51% | 991.6 hPa | 0 mm | - | - | - |
| 1777733175 | 5.56° C | 55% | 991.8 hPa | 0 mm | - | - | - |
| 1777732290 | 5° C | 59% | 992.2 hPa | 0 mm | - | - | - |
| 1777731376 | 5° C | 59% | 992.2 hPa | 0 mm | - | - | - |
| 1777730517 | 4.44° C | 59% | 992.2 hPa | 0 mm | - | - | - |
| 1777729576 | 3.89° C | 74% | 992 hPa | 0 mm | - | - | - |
| 1777728694 | 3.89° C | 74% | 992 hPa | 0 mm | - | - | - |
| 1777727775 | 3.33° C | 74% | 992 hPa | 0 mm | - | - | - |
| 1777726903 | 2.78° C | 74% | 992 hPa | 0 mm | - | - | - |
* Rain latest hour (hover to see other rain measurements)
** Current wind speed in m/s (hover to see current wind gust speed)